CAL1588 RCTP-FDSK

Flight info

Callsign CAL1588
Flight time N/A
Altitude 34000
Route CHALI1C CHALI T3 MKG A1 BIGEX A202 SIKOU/K0933S1040 A202 ASSAD/K0924F360 A202 VILAO/N0499F360 A202 RAMEI W42 MENEX Y8 IKERA G458 PUT P627 GUTOX/N0493F380 P627 KADAP R348 IBNAV/N0485F400 R348 RUPIG UR348 TNV UB536 EROPA/N0513F280 UB536 VMA UM310 TONKA
Aircraft A359/H-SDE2E3GHIJ3J4J5LM1ORWXY/LB1D1

Departure

Time N/A
Airport Taiwan Taoyuan International Airport (RCTP)

Arrival

Time 2026-05-01 13:20
Airport King Mswati III International Airport (FDSK)
Time Latitude Longitude Altitude Speed Heading
2026-05-01 07:23 -6.30969 74.69035 37928 ft 509 kts 245°
2026-05-01 07:24 -6.35308 74.59285 37934 ft 508 kts 245°
2026-05-01 07:24 -6.38193 74.52798 37927 ft 508 kts 245°
2026-05-01 07:25 -6.41071 74.46324 37930 ft 506 kts 245°
2026-05-01 07:25 -6.43926 74.39901 37928 ft 506 kts 245°
2026-05-01 07:26 -6.46792 74.33450 37929 ft 505 kts 245°
2026-05-01 07:26 -6.49655 74.27003 37928 ft 504 kts 245°
2026-05-01 07:27 -6.52508 74.20576 37932 ft 503 kts 245°
2026-05-01 07:27 -6.55364 74.14141 37934 ft 503 kts 245°
2026-05-01 07:28 -6.58210 74.07725 37930 ft 502 kts 245°
2026-05-01 07:28 -6.61052 74.01315 37928 ft 501 kts 246°
2026-05-01 07:29 -6.63871 73.94955 37927 ft 501 kts 246°
2026-05-01 07:29 -6.66706 73.88554 37931 ft 501 kts 246°
2026-05-01 07:30 -6.69539 73.82158 37926 ft 500 kts 246°
2026-05-01 07:30 -6.72368 73.75767 37929 ft 500 kts 246°
2026-05-01 07:31 -6.75192 73.69384 37931 ft 499 kts 246°
2026-05-01 07:32 -6.82237 73.53450 37930 ft 498 kts 246°
2026-05-01 07:33 -6.86454 73.43905 37928 ft 497 kts 246°
2026-05-01 07:33 -6.90662 73.34374 37933 ft 497 kts 246°
2026-05-01 07:34 -6.94879 73.24817 37929 ft 498 kts 246°
2026-05-01 07:35 -6.97669 73.18491 37934 ft 498 kts 246°
2026-05-01 07:35 -7.00481 73.12112 37934 ft 498 kts 246°
2026-05-01 07:36 -7.03291 73.05735 37931 ft 498 kts 246°
2026-05-01 07:36 -7.06103 72.99351 37931 ft 499 kts 246°
2026-05-01 07:37 -7.10330 72.89748 37936 ft 500 kts 246°
2026-05-01 07:37 -7.13145 72.83349 37935 ft 500 kts 246°
2026-05-01 07:38 -7.15942 72.76988 37938 ft 500 kts 246°
2026-05-01 07:39 -7.20174 72.67361 37935 ft 502 kts 246°
2026-05-01 07:39 -7.24415 72.57706 37938 ft 502 kts 246°
2026-05-01 07:40 -7.27238 72.51274 37937 ft 502 kts 246°
2026-05-01 07:40 -7.30063 72.44838 37935 ft 502 kts 246°
2026-05-01 07:41 -7.33149 72.38538 37934 ft 502 kts 241°
2026-05-01 07:42 -7.38241 72.29321 37936 ft 502 kts 240°
2026-05-01 07:42 -7.41666 72.23202 37938 ft 501 kts 240°
2026-05-01 07:43 -7.45083 72.17078 37936 ft 501 kts 240°
2026-05-01 07:43 -7.50191 72.07893 37933 ft 501 kts 240°
2026-05-01 07:44 -7.56999 71.95638 37927 ft 501 kts 240°
2026-05-01 07:45 -7.60380 71.89549 37934 ft 501 kts 240°
2026-05-01 07:45 -7.63780 71.83424 37930 ft 501 kts 240°
2026-05-01 07:46 -7.67187 71.77284 37931 ft 501 kts 240°
2026-05-01 07:47 -7.72286 71.68090 37927 ft 501 kts 240°
2026-05-01 07:47 -7.75688 71.61950 37927 ft 501 kts 240°
2026-05-01 07:48 -7.80781 71.52758 37924 ft 500 kts 240°
2026-05-01 07:48 -7.84172 71.46632 37926 ft 500 kts 240°
2026-05-01 07:49 -7.89249 71.37458 37929 ft 499 kts 240°
2026-05-01 07:50 -7.92631 71.31343 37930 ft 499 kts 240°
2026-05-01 07:50 -7.97677 71.22215 37927 ft 498 kts 240°
2026-05-01 07:51 -8.01053 71.16104 37928 ft 498 kts 240°
2026-05-01 07:52 -8.06117 71.06936 37923 ft 498 kts 240°
2026-05-01 07:52 -8.09489 71.00826 37926 ft 498 kts 240°
2026-05-01 07:53 -8.14520 70.91704 37922 ft 497 kts 240°
2026-05-01 07:53 -8.17878 70.85612 37918 ft 497 kts 240°
2026-05-01 07:55 -8.26270 70.70379 37918 ft 497 kts 240°
2026-05-01 07:56 -8.34694 70.55069 37917 ft 501 kts 240°
2026-05-01 07:57 -8.39774 70.45830 37922 ft 502 kts 241°
2026-05-01 07:58 -8.46561 70.33474 37914 ft 503 kts 241°
2026-05-01 07:59 -8.53331 70.21137 37914 ft 503 kts 241°
2026-05-01 08:00 -8.63513 70.02564 37911 ft 504 kts 241°
2026-05-01 08:01 -8.70299 69.90168 37911 ft 504 kts 241°
2026-05-01 08:02 -8.75385 69.80869 37915 ft 504 kts 241°
2026-05-01 08:03 -8.79899 69.72611 37909 ft 504 kts 241°
2026-05-01 08:03 -8.84981 69.63309 37911 ft 504 kts 241°
2026-05-01 08:04 -8.91755 69.50899 37914 ft 504 kts 241°
2026-05-01 08:05 -8.96815 69.41618 37912 ft 504 kts 241°
2026-05-01 08:06 -9.01888 69.32308 37910 ft 504 kts 241°
2026-05-01 08:07 -9.08658 69.19875 37913 ft 504 kts 241°
2026-05-01 08:08 -9.13727 69.10556 37906 ft 504 kts 241°
2026-05-01 08:09 -9.20488 68.98117 37906 ft 504 kts 241°
2026-05-01 08:09 -9.23843 68.91938 37913 ft 504 kts 241°
2026-05-01 08:10 -9.30596 68.79495 37906 ft 504 kts 241°
2026-05-01 08:11 -9.37328 68.67078 37904 ft 502 kts 241°
2026-05-01 08:12 -9.42372 68.57764 37904 ft 502 kts 241°
2026-05-01 08:13 -9.47408 68.48460 37901 ft 502 kts 241°
2026-05-01 08:13 -9.52417 68.39199 37899 ft 502 kts 241°
2026-05-01 08:14 -9.55769 68.32997 37904 ft 502 kts 241°
2026-05-01 08:14 -9.59117 68.26797 37903 ft 502 kts 241°
2026-05-01 08:15 -9.64142 68.17486 37903 ft 502 kts 241°
2026-05-01 08:16 -9.67499 68.11265 37903 ft 502 kts 241°
2026-05-01 08:16 -9.70851 68.05048 37903 ft 502 kts 241°
2026-05-01 08:17 -9.74183 67.98863 37900 ft 503 kts 242°
2026-05-01 08:17 -9.77536 67.92638 37899 ft 503 kts 242°
2026-05-01 08:18 -9.80883 67.86419 37898 ft 502 kts 242°
2026-05-01 08:19 -9.87572 67.73983 37898 ft 501 kts 242°
2026-05-01 08:19 -9.90902 67.67787 37900 ft 500 kts 242°
2026-05-01 08:20 -9.94227 67.61597 37900 ft 499 kts 242°
2026-05-01 08:20 -9.97546 67.55414 37899 ft 498 kts 242°
2026-05-01 08:21 -10.00856 67.49245 37895 ft 497 kts 242°
2026-05-01 08:21 -10.04157 67.43088 37892 ft 496 kts 242°
2026-05-01 08:21 -10.05809 67.40007 37999 ft 496 kts 242°
2026-05-01 08:22 -10.07432 67.36979 38285 ft 494 kts 242°
2026-05-01 08:22 -10.09069 67.33924 38575 ft 492 kts 242°
2026-05-01 08:22 -10.10721 67.30838 38777 ft 491 kts 242°
2026-05-01 08:22 -10.12332 67.27830 38913 ft 492 kts 242°
2026-05-01 08:23 -10.13967 67.24776 39040 ft 492 kts 242°
2026-05-01 08:23 -10.15606 67.21715 39172 ft 493 kts 242°
2026-05-01 08:23 -10.17244 67.18653 39311 ft 493 kts 242°
2026-05-01 08:23 -10.18882 67.15589 39449 ft 493 kts 242°
2026-05-01 08:24 -10.20517 67.12531 39569 ft 494 kts 242°
2026-05-01 08:24 -10.22156 67.09466 39683 ft 495 kts 242°
2026-05-01 08:24 -10.23798 67.06394 39816 ft 495 kts 242°
2026-05-01 08:25 -10.27089 67.00234 39896 ft 497 kts 242°
2026-05-01 08:25 -10.30384 66.94060 39893 ft 497 kts 242°
2026-05-01 08:26 -10.33681 66.87881 39895 ft 498 kts 242°
2026-05-01 08:26 -10.36987 66.81682 39896 ft 499 kts 242°
2026-05-01 08:27 -10.40298 66.75473 39898 ft 500 kts 242°
2026-05-01 08:27 -10.43550 66.69282 39898 ft 500 kts 243°
2026-05-01 08:28 -10.46672 66.62973 39895 ft 500 kts 244°
2026-05-01 08:28 -10.49733 66.56632 39895 ft 499 kts 244°
2026-05-01 08:29 -10.52798 66.50300 39895 ft 499 kts 244°
2026-05-01 08:29 -10.55885 66.43969 39892 ft 499 kts 244°
2026-05-01 08:30 -10.58973 66.37655 39896 ft 499 kts 244°
2026-05-01 08:30 -10.62059 66.31343 39893 ft 498 kts 244°
2026-05-01 08:31 -10.65124 66.25068 39894 ft 498 kts 244°
2026-05-01 08:31 -10.68208 66.18749 39898 ft 498 kts 244°
2026-05-01 08:32 -10.71286 66.12442 39898 ft 498 kts 244°
2026-05-01 08:32 -10.74370 66.06121 39895 ft 498 kts 245°
2026-05-01 08:33 -10.77452 65.99802 39900 ft 498 kts 245°
2026-05-01 08:33 -10.80528 65.93481 39898 ft 498 kts 245°
2026-05-01 08:34 -10.83595 65.87169 39899 ft 497 kts 245°
2026-05-01 08:34 -10.86640 65.80900 39897 ft 496 kts 245°
2026-05-01 08:35 -10.89693 65.74611 39898 ft 496 kts 245°
2026-05-01 08:35 -10.92749 65.68319 39898 ft 495 kts 244°
2026-05-01 08:36 -10.95796 65.62048 39897 ft 494 kts 245°
2026-05-01 08:36 -10.98838 65.55775 39898 ft 493 kts 245°
2026-05-01 08:37 -11.01873 65.49512 39899 ft 493 kts 245°
2026-05-01 08:37 -11.04882 65.43296 39902 ft 492 kts 245°
2026-05-01 08:38 -11.07911 65.37051 39898 ft 492 kts 245°
2026-05-01 08:38 -11.10927 65.30806 39897 ft 491 kts 245°
2026-05-01 08:39 -11.13946 65.24560 39897 ft 491 kts 245°
2026-05-01 08:39 -11.16969 65.18317 39898 ft 491 kts 245°
2026-05-01 08:40 -11.21495 65.08931 39900 ft 492 kts 245°
2026-05-01 08:40 -11.24493 65.02713 39900 ft 493 kts 245°
2026-05-01 08:41 -11.27513 64.96445 39898 ft 493 kts 245°
2026-05-01 08:41 -11.30532 64.90177 39899 ft 492 kts 245°
2026-05-01 08:42 -11.33551 64.83906 39897 ft 492 kts 245°
2026-05-01 08:42 -11.36569 64.77635 39897 ft 492 kts 245°
2026-05-01 08:43 -11.39579 64.71365 39901 ft 492 kts 245°
2026-05-01 08:43 -11.42590 64.65096 39901 ft 492 kts 245°
2026-05-01 08:44 -11.45602 64.58831 39899 ft 493 kts 245°
2026-05-01 08:44 -11.48619 64.52549 39899 ft 492 kts 245°
2026-05-01 08:45 -11.51625 64.46277 39897 ft 492 kts 245°
2026-05-01 08:45 -11.54631 64.40000 39898 ft 492 kts 245°
2026-05-01 08:46 -11.57616 64.33771 39899 ft 492 kts 245°
2026-05-01 08:46 -11.60616 64.27495 39900 ft 492 kts 245°
2026-05-01 08:47 -11.63612 64.21222 39900 ft 491 kts 245°
2026-05-01 08:47 -11.66609 64.14946 39899 ft 491 kts 245°
2026-05-01 08:48 -11.69605 64.08682 39903 ft 491 kts 245°
2026-05-01 08:48 -11.72588 64.02446 39902 ft 491 kts 245°
2026-05-01 08:49 -11.75579 63.96181 39900 ft 491 kts 245°
2026-05-01 08:49 -11.78563 63.89919 39901 ft 491 kts 245°
2026-05-01 08:50 -11.81055 63.84670 39903 ft 490 kts 245°
2026-05-01 08:50 -11.84018 63.78441 39904 ft 490 kts 245°
2026-05-01 08:51 -11.87000 63.72173 39902 ft 490 kts 245°
2026-05-01 08:51 -11.89982 63.65904 39904 ft 490 kts 245°
2026-05-01 08:52 -11.92952 63.59644 39902 ft 490 kts 245°
2026-05-01 08:52 -11.95924 63.53383 39902 ft 490 kts 245°
2026-05-01 08:53 -11.98890 63.47126 39902 ft 489 kts 245°
2026-05-01 08:53 -12.01859 63.40864 39903 ft 489 kts 245°
2026-05-01 08:54 -12.04830 63.34601 39908 ft 489 kts 245°
2026-05-01 08:54 -12.07774 63.28396 39908 ft 488 kts 245°
2026-05-01 08:55 -12.10725 63.22158 39904 ft 487 kts 245°
2026-05-01 08:55 -12.13668 63.15927 39906 ft 487 kts 245°
2026-05-01 08:56 -12.16608 63.09696 39908 ft 486 kts 245°
2026-05-01 08:56 -12.19546 63.03468 39909 ft 486 kts 245°
2026-05-01 08:57 -12.22477 62.97254 39910 ft 485 kts 245°
2026-05-01 08:57 -12.25649 62.90535 39911 ft 485 kts 245°
2026-05-01 08:58 -12.28573 62.84327 39911 ft 484 kts 245°
2026-05-01 08:58 -12.31499 62.78112 39913 ft 484 kts 245°
2026-05-01 08:59 -12.34421 62.71915 39912 ft 484 kts 245°
2026-05-01 08:59 -12.37342 62.65698 39912 ft 484 kts 245°
2026-05-01 09:00 -12.40254 62.59492 39911 ft 484 kts 245°
2026-05-01 09:00 -12.43170 62.53276 39913 ft 484 kts 245°
2026-05-01 09:01 -12.46080 62.47068 39913 ft 484 kts 245°
2026-05-01 09:01 -12.48990 62.40862 39910 ft 484 kts 245°
2026-05-01 09:02 -12.51883 62.34690 39913 ft 484 kts 245°
2026-05-01 09:02 -12.54786 62.28480 39911 ft 484 kts 245°
2026-05-01 09:03 -12.57695 62.22269 39911 ft 484 kts 245°
2026-05-01 09:03 -12.60597 62.16063 39911 ft 483 kts 245°
2026-05-01 09:04 -12.63497 62.09851 39909 ft 483 kts 245°
2026-05-01 09:04 -12.66395 62.03643 39917 ft 483 kts 245°
2026-05-01 09:05 -12.69291 61.97439 39921 ft 483 kts 245°
2026-05-01 09:05 -12.72178 61.91226 39917 ft 483 kts 245°
2026-05-01 09:06 -12.75067 61.85021 39918 ft 482 kts 245°
2026-05-01 09:06 -12.77951 61.78821 39918 ft 482 kts 245°
2026-05-01 09:07 -12.80822 61.72654 39920 ft 482 kts 245°
2026-05-01 09:07 -12.83704 61.66452 39919 ft 481 kts 245°
2026-05-01 09:08 -12.86581 61.60260 39920 ft 481 kts 245°
2026-05-01 09:08 -12.89452 61.54068 39922 ft 480 kts 245°
2026-05-01 09:09 -12.92319 61.47886 39920 ft 480 kts 245°
2026-05-01 09:09 -12.95186 61.41697 39922 ft 480 kts 245°
2026-05-01 09:10 -12.98050 61.35512 39927 ft 480 kts 245°
2026-05-01 09:10 -13.00912 61.29327 39925 ft 479 kts 245°
2026-05-01 09:11 -13.03768 61.23149 39922 ft 479 kts 245°
2026-05-01 09:11 -13.06604 61.17010 39921 ft 479 kts 245°
2026-05-01 09:12 -13.09457 61.10828 39923 ft 479 kts 245°
2026-05-01 09:12 -13.12306 61.04651 39925 ft 479 kts 245°
2026-05-01 09:13 -13.15151 60.98480 39925 ft 478 kts 245°
2026-05-01 09:13 -13.17997 60.92301 39926 ft 478 kts 245°
2026-05-01 09:14 -13.20820 60.86167 39928 ft 478 kts 245°
2026-05-01 09:14 -13.23199 60.80995 39928 ft 478 kts 245°
2026-05-01 09:15 -13.26036 60.74824 39927 ft 478 kts 245°
2026-05-01 09:15 -13.28869 60.68656 39930 ft 478 kts 245°
2026-05-01 09:16 -13.31682 60.62523 39929 ft 478 kts 245°
2026-05-01 09:17 -13.35930 60.53257 39930 ft 477 kts 245°
2026-05-01 09:17 -13.40174 60.43992 39931 ft 477 kts 245°
2026-05-01 09:18 -13.44408 60.34734 39935 ft 477 kts 245°
2026-05-01 09:19 -13.48622 60.25510 39931 ft 477 kts 245°
2026-05-01 09:20 -13.52854 60.16241 39933 ft 478 kts 245°
2026-05-01 09:21 -13.58495 60.03858 39937 ft 478 kts 245°
2026-05-01 09:21 -13.62718 59.94580 39935 ft 478 kts 245°
2026-05-01 09:22 -13.68347 59.82192 39938 ft 478 kts 245°
2026-05-01 09:23 -13.72545 59.72941 39938 ft 478 kts 245°
2026-05-01 09:24 -13.76768 59.63625 39935 ft 478 kts 245°
2026-05-01 09:25 -13.82388 59.51210 39943 ft 479 kts 245°
2026-05-01 09:26 -13.86606 59.41878 39943 ft 479 kts 245°
2026-05-01 09:26 -13.90805 59.32575 39941 ft 479 kts 245°
2026-05-01 09:27 -13.95016 59.23236 39945 ft 479 kts 245°
2026-05-01 09:28 -13.97828 59.16993 39946 ft 480 kts 245°
2026-05-01 09:28 -14.00635 59.10756 39946 ft 480 kts 245°
2026-05-01 09:29 -14.04847 59.01386 39943 ft 480 kts 245°
2026-05-01 09:30 -14.09057 58.92012 39948 ft 481 kts 245°
2026-05-01 09:30 -14.13249 58.82666 39950 ft 481 kts 245°
2026-05-01 09:31 -14.16057 58.76397 39947 ft 482 kts 245°
2026-05-01 09:32 -14.20267 58.66993 39946 ft 482 kts 245°
2026-05-01 09:32 -14.24475 58.57578 39950 ft 482 kts 245°
2026-05-01 09:33 -14.27260 58.51343 39952 ft 482 kts 245°
2026-05-01 09:34 -14.31462 58.41921 39954 ft 482 kts 245°
2026-05-01 09:34 -14.35663 58.32493 39955 ft 482 kts 245°
2026-05-01 09:35 -14.39865 58.23050 39955 ft 483 kts 245°
2026-05-01 09:36 -14.42665 58.16751 39955 ft 483 kts 245°
2026-05-01 09:36 -14.45462 58.10451 39956 ft 483 kts 245°
2026-05-01 09:37 -14.48239 58.04193 39957 ft 482 kts 245°
2026-05-01 09:37 -14.52429 57.94742 39958 ft 483 kts 245°
2026-05-01 09:38 -14.56615 57.85286 39958 ft 483 kts 245°
2026-05-01 09:39 -14.60797 57.75828 39959 ft 483 kts 245°
2026-05-01 09:39 -14.63583 57.69519 39957 ft 483 kts 245°
2026-05-01 09:40 -14.67762 57.60048 39961 ft 483 kts 245°
2026-05-01 09:41 -14.70542 57.53740 39961 ft 483 kts 245°
2026-05-01 09:41 -14.74693 57.44310 39961 ft 483 kts 245°
2026-05-01 09:42 -14.77436 57.38072 39965 ft 483 kts 245°
2026-05-01 09:43 -14.82984 57.25439 39963 ft 482 kts 245°
2026-05-01 09:43 -14.85751 57.19129 39965 ft 482 kts 245°
2026-05-01 09:44 -14.89904 57.09652 39965 ft 482 kts 245°
2026-05-01 09:45 -14.92666 57.03340 39967 ft 482 kts 245°
2026-05-01 09:45 -14.96808 56.93866 39965 ft 482 kts 245°
2026-05-01 09:46 -14.99571 56.87539 39968 ft 482 kts 245°
2026-05-01 09:46 -15.02311 56.81259 39967 ft 482 kts 245°
2026-05-01 09:47 -15.05064 56.74942 39971 ft 482 kts 245°
2026-05-01 09:47 -15.07821 56.68609 39969 ft 482 kts 245°
2026-05-01 09:48 -15.10572 56.62287 39971 ft 482 kts 245°
2026-05-01 09:48 -15.13321 56.55961 39972 ft 482 kts 245°
2026-05-01 09:49 -15.16069 56.49634 39971 ft 482 kts 245°
2026-05-01 09:49 -15.18813 56.43310 39975 ft 481 kts 245°
2026-05-01 09:50 -15.21557 56.36980 39972 ft 481 kts 246°
2026-05-01 09:50 -15.24296 56.30658 39970 ft 481 kts 246°
2026-05-01 09:51 -15.27033 56.24333 39974 ft 481 kts 246°
2026-05-01 09:51 -15.29765 56.18012 39977 ft 481 kts 246°
2026-05-01 09:52 -15.32498 56.11682 39979 ft 481 kts 246°
2026-05-01 09:52 -15.35210 56.05398 39978 ft 481 kts 246°
2026-05-01 09:53 -15.37956 55.99029 39975 ft 481 kts 246°
2026-05-01 09:53 -15.40665 55.92741 39976 ft 481 kts 246°
2026-05-01 09:54 -15.43388 55.86411 39979 ft 480 kts 246°
2026-05-01 09:54 -15.46110 55.80081 39978 ft 480 kts 246°
2026-05-01 09:55 -15.48830 55.73749 39979 ft 480 kts 246°
2026-05-01 09:55 -15.51544 55.67424 39981 ft 480 kts 246°
2026-05-01 09:56 -15.54243 55.61129 39980 ft 480 kts 246°
2026-05-01 09:56 -15.56952 55.54804 39981 ft 480 kts 246°
2026-05-01 09:57 -15.59636 55.48466 39980 ft 480 kts 247°
2026-05-01 09:57 -15.62152 55.42058 39979 ft 480 kts 248°
2026-05-01 09:58 -15.64599 55.35616 39981 ft 479 kts 248°
2026-05-01 09:58 -15.67043 55.29174 39985 ft 479 kts 248°
2026-05-01 09:59 -15.69488 55.22735 39983 ft 479 kts 249°
2026-05-01 09:59 -15.71928 55.16291 39985 ft 479 kts 249°
2026-05-01 10:00 -15.74371 55.09858 39985 ft 479 kts 248°
2026-05-01 10:00 -15.76820 55.03428 39983 ft 479 kts 248°
2026-05-01 10:01 -15.79257 54.97031 39987 ft 479 kts 248°
2026-05-01 10:01 -15.81707 54.90597 39984 ft 479 kts 248°
2026-05-01 10:02 -15.83740 54.85251 39983 ft 479 kts 248°
2026-05-01 10:02 -15.86203 54.78816 39985 ft 479 kts 248°
2026-05-01 10:03 -15.89071 54.71303 39987 ft 479 kts 248°
2026-05-01 10:03 -15.91101 54.65952 39988 ft 479 kts 248°
2026-05-01 10:04 -15.93533 54.59504 40000 ft 479 kts 249°
2026-05-01 10:04 -15.96343 54.52019 39989 ft 478 kts 249°
2026-05-01 10:05 -15.98369 54.46615 39999 ft 479 kts 249°
2026-05-01 10:05 -16.00787 54.40164 39992 ft 479 kts 249°
2026-05-01 10:06 -16.03202 54.33720 39992 ft 479 kts 249°
2026-05-01 10:06 -16.05604 54.27309 39992 ft 479 kts 249°
2026-05-01 10:07 -16.08034 54.20816 39994 ft 479 kts 249°
2026-05-01 10:07 -16.10431 54.14403 39992 ft 479 kts 249°
2026-05-01 10:08 -16.14050 54.04714 39992 ft 479 kts 249°
2026-05-01 10:09 -16.16459 53.98252 39994 ft 479 kts 249°
2026-05-01 10:09 -16.18868 53.91783 39997 ft 480 kts 249°
2026-05-01 10:10 -16.21278 53.85307 39995 ft 480 kts 249°
2026-05-01 10:10 -16.24892 53.75580 39996 ft 480 kts 249°
2026-05-01 10:11 -16.27296 53.69101 39996 ft 480 kts 249°
2026-05-01 10:11 -16.29699 53.62617 39995 ft 480 kts 249°
2026-05-01 10:12 -16.32089 53.56163 39998 ft 480 kts 249°
2026-05-01 10:13 -16.35690 53.46427 40000 ft 481 kts 249°
2026-05-01 10:13 -16.38094 53.39920 40001 ft 481 kts 249°
2026-05-01 10:14 -16.41944 53.30278 40002 ft 481 kts 245°
2026-05-01 10:14 -16.44812 53.23987 40001 ft 481 kts 244°
2026-05-01 10:15 -16.47710 53.17709 40000 ft 481 kts 244°
2026-05-01 10:15 -16.50569 53.11412 40002 ft 481 kts 245°
2026-05-01 10:16 -16.53403 53.05097 40003 ft 481 kts 245°
2026-05-01 10:17 -16.57620 52.95660 40005 ft 481 kts 245°
2026-05-01 10:17 -16.61855 52.86177 40007 ft 481 kts 245°
2026-05-01 10:18 -16.66086 52.76694 40007 ft 481 kts 245°
2026-05-01 10:19 -16.68900 52.70375 40006 ft 481 kts 245°
2026-05-01 10:19 -16.71717 52.64047 40011 ft 480 kts 245°
2026-05-01 10:20 -16.75937 52.54555 40011 ft 481 kts 245°
2026-05-01 10:20 -16.78745 52.48231 40013 ft 480 kts 245°
2026-05-01 10:21 -16.82938 52.38776 40016 ft 480 kts 245°
2026-05-01 10:22 -16.87141 52.29283 40017 ft 480 kts 245°
2026-05-01 10:23 -16.91343 52.19780 40016 ft 480 kts 245°
2026-05-01 10:23 -16.95532 52.10293 40020 ft 479 kts 245°
2026-05-01 10:24 -17.01112 51.97634 40019 ft 480 kts 245°
2026-05-01 10:25 -17.06686 51.84971 40021 ft 479 kts 245°
2026-05-01 10:26 -17.09471 51.78634 40022 ft 480 kts 245°
2026-05-01 10:27 -17.15023 51.65959 40023 ft 479 kts 245°
2026-05-01 10:28 -17.19183 51.56455 40024 ft 479 kts 245°
2026-05-01 10:28 -17.23328 51.46976 40027 ft 479 kts 245°
2026-05-01 10:29 -17.27476 51.37470 40029 ft 479 kts 245°
2026-05-01 10:30 -17.33029 51.24805 40028 ft 479 kts 245°
2026-05-01 10:31 -17.38542 51.12165 40029 ft 479 kts 246°
2026-05-01 10:32 -17.42659 51.02628 40036 ft 479 kts 246°
2026-05-01 10:33 -17.48138 50.89903 40034 ft 479 kts 246°
2026-05-01 10:34 -17.52262 50.80364 40033 ft 479 kts 246°
2026-05-01 10:34 -17.55011 50.74001 40038 ft 479 kts 246°
2026-05-01 10:35 -17.59114 50.64486 40040 ft 479 kts 246°
2026-05-01 10:35 -17.61857 50.58115 40043 ft 479 kts 246°
2026-05-01 10:36 -17.65967 50.48555 40043 ft 479 kts 246°
2026-05-01 10:37 -17.68708 50.42173 40045 ft 480 kts 246°
2026-05-01 10:37 -17.72813 50.32601 40046 ft 480 kts 246°
2026-05-01 10:38 -17.75528 50.26266 40046 ft 480 kts 246°
2026-05-01 10:38 -17.78264 50.19871 40048 ft 480 kts 246°
2026-05-01 10:39 -17.80994 50.13481 40050 ft 480 kts 246°
2026-05-01 10:39 -17.83722 50.07092 40050 ft 480 kts 246°
2026-05-01 10:40 -17.86448 50.00700 40051 ft 480 kts 246°
2026-05-01 10:40 -17.89172 49.94307 40053 ft 479 kts 246°
2026-05-01 10:41 -17.91893 49.87914 40057 ft 479 kts 246°
2026-05-01 10:42 -17.95955 49.78355 40062 ft 480 kts 246°
2026-05-01 10:42 -17.98674 49.71948 40068 ft 480 kts 246°
2026-05-01 10:43 -18.01392 49.65537 40073 ft 480 kts 246°
2026-05-01 10:43 -18.04107 49.59127 40076 ft 480 kts 246°
2026-05-01 10:44 -18.06825 49.52702 40077 ft 481 kts 246°
2026-05-01 10:44 -18.09536 49.46286 40077 ft 480 kts 246°
2026-05-01 10:45 -18.12245 49.39863 40074 ft 480 kts 246°
2026-05-01 10:45 -18.14781 49.33347 40076 ft 480 kts 248°
2026-05-01 10:46 -18.17158 49.26835 40079 ft 480 kts 249°
2026-05-01 10:46 -18.19528 49.20272 40092 ft 480 kts 249°
2026-05-01 10:47 -18.21901 49.13697 40105 ft 480 kts 249°
2026-05-01 10:47 -18.24287 49.07138 40127 ft 480 kts 249°
2026-05-01 10:48 -18.26681 49.00589 40137 ft 479 kts 249°
2026-05-01 10:48 -18.29075 48.94047 40149 ft 479 kts 249°
2026-05-01 10:49 -18.31449 48.87548 40153 ft 478 kts 249°
2026-05-01 10:49 -18.33828 48.81022 40160 ft 478 kts 249°
2026-05-01 10:50 -18.36218 48.74460 40170 ft 478 kts 249°
2026-05-01 10:50 -18.38595 48.67927 40175 ft 478 kts 249°
2026-05-01 10:51 -18.40957 48.61427 40182 ft 478 kts 249°
2026-05-01 10:51 -18.43330 48.54891 40182 ft 477 kts 249°
2026-05-01 10:52 -18.45697 48.48356 40188 ft 477 kts 249°
2026-05-01 10:52 -18.47663 48.42930 40186 ft 477 kts 249°
2026-05-01 10:53 -18.50026 48.36395 40186 ft 477 kts 249°
2026-05-01 10:53 -18.52389 48.29856 40189 ft 477 kts 249°
2026-05-01 10:54 -18.54748 48.23320 40194 ft 477 kts 249°
2026-05-01 10:54 -18.57107 48.16774 40197 ft 477 kts 249°
2026-05-01 10:55 -18.59444 48.10281 40204 ft 477 kts 249°
2026-05-01 10:55 -18.61795 48.03740 40205 ft 477 kts 249°
2026-05-01 10:56 -18.64142 47.97204 40212 ft 476 kts 249°
2026-05-01 10:56 -18.66488 47.90664 40213 ft 476 kts 249°
2026-05-01 10:57 -18.68822 47.84145 40221 ft 475 kts 249°
2026-05-01 10:57 -18.71157 47.77616 40222 ft 475 kts 249°
2026-05-01 10:58 -18.73487 47.71095 40220 ft 475 kts 249°
2026-05-01 10:58 -18.75816 47.64569 40216 ft 475 kts 249°
2026-05-01 10:59 -18.78139 47.58049 40211 ft 475 kts 249°
2026-05-01 10:59 -18.80541 47.51611 40211 ft 475 kts 245°
2026-05-01 11:00 -18.83437 47.45339 40213 ft 475 kts 243°
2026-05-01 11:00 -18.86426 47.39123 40211 ft 475 kts 243°
2026-05-01 11:01 -18.89421 47.32902 40212 ft 475 kts 243°
2026-05-01 11:01 -18.92396 47.26665 40207 ft 475 kts 243°
2026-05-01 11:02 -18.95353 47.20427 40197 ft 475 kts 243°
2026-05-01 11:02 -18.98308 47.14187 40194 ft 475 kts 243°
2026-05-01 11:03 -19.01270 47.07938 40190 ft 475 kts 243°
2026-05-01 11:03 -19.04227 47.01690 40179 ft 475 kts 243°
2026-05-01 11:04 -19.07179 46.95442 40176 ft 475 kts 243°
2026-05-01 11:04 -19.10132 46.89181 40164 ft 475 kts 243°
2026-05-01 11:05 -19.13064 46.82954 40155 ft 475 kts 243°
2026-05-01 11:05 -19.16012 46.76691 40143 ft 476 kts 243°
2026-05-01 11:06 -19.18959 46.70424 40132 ft 476 kts 243°
2026-05-01 11:06 -19.21906 46.64149 40124 ft 476 kts 243°
2026-05-01 11:07 -19.26326 46.54727 40111 ft 476 kts 244°
2026-05-01 11:07 -19.29268 46.48446 40103 ft 476 kts 244°
2026-05-01 11:08 -19.32208 46.42155 40094 ft 476 kts 244°
2026-05-01 11:09 -19.36603 46.32719 40084 ft 476 kts 244°
2026-05-01 11:09 -19.39527 46.26439 40077 ft 476 kts 244°
2026-05-01 11:10 -19.43893 46.17036 40070 ft 476 kts 244°
2026-05-01 11:10 -19.46812 46.10741 40066 ft 476 kts 244°
2026-05-01 11:11 -19.49739 46.04439 40060 ft 476 kts 244°
2026-05-01 11:11 -19.52661 45.98148 40055 ft 476 kts 244°
2026-05-01 11:12 -19.55584 45.91847 40049 ft 476 kts 244°
2026-05-01 11:12 -19.58500 45.85555 40043 ft 476 kts 244°
2026-05-01 11:13 -19.61413 45.79262 40027 ft 475 kts 244°
2026-05-01 11:13 -19.64324 45.72963 40020 ft 475 kts 244°
2026-05-01 11:14 -19.67235 45.66660 40013 ft 475 kts 245°
2026-05-01 11:14 -19.70117 45.60413 40009 ft 474 kts 245°
2026-05-01 11:15 -19.73015 45.54122 39995 ft 474 kts 245°
2026-05-01 11:15 -19.75909 45.47836 39992 ft 474 kts 245°
2026-05-01 11:16 -19.78802 45.41543 39985 ft 474 kts 245°
2026-05-01 11:16 -19.81689 45.35256 39981 ft 473 kts 245°
2026-05-01 11:17 -19.84573 45.28969 39974 ft 473 kts 245°
2026-05-01 11:17 -19.87450 45.22691 39968 ft 473 kts 245°
2026-05-01 11:18 -19.90320 45.16420 39964 ft 472 kts 245°
2026-05-01 11:18 -19.93192 45.10138 39957 ft 472 kts 245°
2026-05-01 11:19 -19.96037 45.03908 39960 ft 472 kts 245°
2026-05-01 11:19 -19.98901 44.97631 39959 ft 471 kts 245°
2026-05-01 11:20 -20.01758 44.91360 39956 ft 471 kts 245°
2026-05-01 11:20 -20.04613 44.85089 39957 ft 471 kts 245°
2026-05-01 11:21 -20.07469 44.78807 39960 ft 471 kts 245°
2026-05-01 11:21 -20.10315 44.72538 39960 ft 471 kts 245°
2026-05-01 11:22 -20.13158 44.66270 39961 ft 470 kts 245°
2026-05-01 11:22 -20.16003 44.59991 39963 ft 470 kts 245°
2026-05-01 11:23 -20.18842 44.53719 39968 ft 470 kts 245°
2026-05-01 11:23 -20.21677 44.47448 39977 ft 470 kts 245°
2026-05-01 11:24 -20.24490 44.41217 39979 ft 470 kts 246°
2026-05-01 11:25 -20.28739 44.31813 39975 ft 470 kts 245°
2026-05-01 11:25 -20.33453 44.22643 39981 ft 470 kts 242°
2026-05-01 11:26 -20.38350 44.13574 39983 ft 470 kts 242°
2026-05-01 11:27 -20.41603 44.07522 39987 ft 470 kts 242°
2026-05-01 11:27 -20.44830 44.01461 39985 ft 470 kts 242°
2026-05-01 11:28 -20.48044 43.95393 39981 ft 470 kts 242°
2026-05-01 11:28 -20.51254 43.89317 39988 ft 470 kts 242°
2026-05-01 11:29 -20.56040 43.80246 39993 ft 469 kts 242°
2026-05-01 11:30 -20.60843 43.71130 39984 ft 469 kts 242°
2026-05-01 11:30 -20.64043 43.65048 39988 ft 469 kts 242°
2026-05-01 11:31 -20.67237 43.58971 39992 ft 469 kts 243°
2026-05-01 11:31 -20.70427 43.52896 39992 ft 469 kts 243°
2026-05-01 11:32 -20.73615 43.46818 39994 ft 469 kts 243°
2026-05-01 11:32 -20.76799 43.40739 39991 ft 469 kts 243°
2026-05-01 11:33 -20.79983 43.34654 39996 ft 469 kts 243°
2026-05-01 11:33 -20.83144 43.28609 39990 ft 468 kts 243°
2026-05-01 11:34 -20.86322 43.22523 39994 ft 468 kts 243°
2026-05-01 11:34 -20.89495 43.16440 39993 ft 468 kts 243°
2026-05-01 11:35 -20.92663 43.10361 39994 ft 468 kts 243°
2026-05-01 11:35 -20.95831 43.04277 39993 ft 468 kts 243°
2026-05-01 11:36 -20.98988 42.98201 39995 ft 467 kts 243°
2026-05-01 11:36 -21.02145 42.92120 39996 ft 467 kts 243°
2026-05-01 11:37 -21.05300 42.86037 39999 ft 467 kts 243°
2026-05-01 11:37 -21.08454 42.79952 39999 ft 467 kts 243°
2026-05-01 11:38 -21.11070 42.74897 39990 ft 466 kts 243°
2026-05-01 11:38 -21.14745 42.67790 39997 ft 466 kts 243°
2026-05-01 11:39 -21.17865 42.61748 39993 ft 466 kts 243°
2026-05-01 11:39 -21.21003 42.55664 39999 ft 466 kts 243°
2026-05-01 11:40 -21.23614 42.50597 39998 ft 466 kts 243°
2026-05-01 11:40 -21.26747 42.44511 39996 ft 466 kts 243°
2026-05-01 11:41 -21.29877 42.38425 39997 ft 466 kts 243°
2026-05-01 11:41 -21.33001 42.32344 39999 ft 466 kts 243°
2026-05-01 11:42 -21.36123 42.26259 40014 ft 466 kts 243°
2026-05-01 11:42 -21.39242 42.20171 40005 ft 465 kts 244°
2026-05-01 11:43 -21.42361 42.14080 40009 ft 465 kts 244°
2026-05-01 11:43 -21.45458 42.08022 40003 ft 465 kts 244°
2026-05-01 11:44 -21.50130 41.98872 40006 ft 465 kts 244°
2026-05-01 11:44 -21.53238 41.92777 40008 ft 465 kts 244°
2026-05-01 11:45 -21.56348 41.86670 40011 ft 466 kts 244°
2026-05-01 11:45 -21.59453 41.80566 40010 ft 466 kts 244°
2026-05-01 11:46 -21.62537 41.74496 40012 ft 466 kts 244°
2026-05-01 11:46 -21.65642 41.68379 40014 ft 466 kts 244°
2026-05-01 11:47 -21.68742 41.62264 40013 ft 466 kts 244°
2026-05-01 11:47 -21.71847 41.56133 40013 ft 466 kts 244°
2026-05-01 11:48 -21.74944 41.50008 40011 ft 466 kts 244°
2026-05-01 11:48 -21.78047 41.43868 40018 ft 466 kts 244°
2026-05-01 11:49 -21.81127 41.37765 40015 ft 467 kts 244°
2026-05-01 11:49 -21.84225 41.31617 40019 ft 467 kts 244°
2026-05-01 11:50 -21.87319 41.25471 40017 ft 467 kts 244°
2026-05-01 11:50 -21.90419 41.19306 40021 ft 467 kts 244°
2026-05-01 11:51 -21.93512 41.13149 40020 ft 467 kts 244°
2026-05-01 11:51 -21.96563 41.07010 40020 ft 467 kts 245°
2026-05-01 11:52 -21.99633 41.00831 40021 ft 468 kts 245°
2026-05-01 11:52 -22.02722 40.94643 40019 ft 468 kts 244°
2026-05-01 11:53 -22.05807 40.88472 40022 ft 468 kts 245°
2026-05-01 11:53 -22.08882 40.82286 40022 ft 468 kts 245°
2026-05-01 11:54 -22.11919 40.76135 40021 ft 468 kts 245°
2026-05-01 11:54 -22.14990 40.69949 40023 ft 468 kts 245°
2026-05-01 11:55 -22.18072 40.63746 40025 ft 468 kts 245°
2026-05-01 11:55 -22.21147 40.57550 40027 ft 468 kts 245°
2026-05-01 11:56 -22.24223 40.51350 40024 ft 468 kts 245°
2026-05-01 11:56 -22.27293 40.45152 40027 ft 468 kts 245°
2026-05-01 11:57 -22.30363 40.38948 40026 ft 468 kts 245°
2026-05-01 11:57 -22.33413 40.32779 40025 ft 468 kts 245°
2026-05-01 11:58 -22.36479 40.26568 40026 ft 468 kts 245°
2026-05-01 11:59 -22.41076 40.17242 40026 ft 469 kts 245°
2026-05-01 11:59 -22.44134 40.11026 40029 ft 469 kts 245°
2026-05-01 12:00 -22.48727 40.01680 40030 ft 469 kts 245°
2026-05-01 12:01 -22.53312 39.92334 40029 ft 469 kts 245°
2026-05-01 12:01 -22.56371 39.86094 40030 ft 469 kts 245°
2026-05-01 12:02 -22.59425 39.79854 40029 ft 469 kts 245°
2026-05-01 12:02 -22.62458 39.73647 40031 ft 469 kts 246°
2026-05-01 12:03 -22.65510 39.67396 40030 ft 469 kts 246°
2026-05-01 12:03 -22.68558 39.61143 40034 ft 469 kts 246°
2026-05-01 12:04 -22.71609 39.54878 40034 ft 470 kts 246°
2026-05-01 12:04 -22.74654 39.48616 40032 ft 470 kts 246°
2026-05-01 12:05 -22.77696 39.42350 40038 ft 470 kts 246°
2026-05-01 12:05 -22.82259 39.32938 40032 ft 470 kts 246°
2026-05-01 12:06 -22.85280 39.26697 40033 ft 471 kts 246°
2026-05-01 12:06 -22.88324 39.20403 40036 ft 471 kts 246°
2026-05-01 12:07 -22.91365 39.14107 40039 ft 471 kts 246°
2026-05-01 12:07 -22.94403 39.07805 40040 ft 471 kts 246°
2026-05-01 12:08 -22.97442 39.01502 40040 ft 471 kts 246°
2026-05-01 12:08 -23.00475 38.95196 40040 ft 471 kts 246°
2026-05-01 12:09 -23.03495 38.88915 40041 ft 471 kts 246°
2026-05-01 12:09 -23.06527 38.82593 40043 ft 472 kts 246°
2026-05-01 12:10 -23.11071 38.73108 40043 ft 472 kts 246°
2026-05-01 12:11 -23.15590 38.63662 40040 ft 472 kts 246°
2026-05-01 12:11 -23.18629 38.57294 40043 ft 472 kts 246°
2026-05-01 12:12 -23.21630 38.50999 40039 ft 472 kts 246°
2026-05-01 12:12 -23.24650 38.44655 40040 ft 472 kts 246°
2026-05-01 12:13 -23.27658 38.38331 40040 ft 472 kts 246°
2026-05-01 12:13 -23.30676 38.31980 40040 ft 471 kts 246°
2026-05-01 12:14 -23.33686 38.25637 40040 ft 471 kts 246°
2026-05-01 12:14 -23.36688 38.19303 40039 ft 471 kts 246°
2026-05-01 12:15 -23.39688 38.12957 40043 ft 471 kts 246°
2026-05-01 12:15 -23.42683 38.06615 40039 ft 471 kts 246°
2026-05-01 12:16 -23.45652 38.00329 40043 ft 470 kts 246°
2026-05-01 12:16 -23.48645 37.93984 40043 ft 470 kts 247°
2026-05-01 12:17 -23.51630 37.87645 40043 ft 470 kts 247°
2026-05-01 12:17 -23.54603 37.81311 40045 ft 469 kts 247°
2026-05-01 12:18 -23.57575 37.74974 40040 ft 469 kts 247°
2026-05-01 12:18 -23.60545 37.68643 40040 ft 469 kts 247°
2026-05-01 12:19 -23.63516 37.62309 40042 ft 468 kts 247°
2026-05-01 12:19 -23.66478 37.55978 40036 ft 468 kts 247°
2026-05-01 12:20 -23.69431 37.49651 40037 ft 468 kts 247°
2026-05-01 12:20 -23.72380 37.43326 40040 ft 467 kts 247°
2026-05-01 12:21 -23.75324 37.37005 40038 ft 467 kts 247°
2026-05-01 12:21 -23.78262 37.30687 40036 ft 466 kts 247°
2026-05-01 12:22 -23.81178 37.24407 40036 ft 466 kts 247°
2026-05-01 12:22 -23.84105 37.18094 40031 ft 466 kts 247°
2026-05-01 12:23 -23.87029 37.11781 40033 ft 465 kts 247°
2026-05-01 12:23 -23.89949 37.05470 40031 ft 465 kts 247°
2026-05-01 12:24 -23.92863 36.99161 40032 ft 465 kts 248°
2026-05-01 12:24 -23.95776 36.92844 40027 ft 465 kts 248°
2026-05-01 12:25 -24.00118 36.83425 40028 ft 464 kts 248°
2026-05-01 12:26 -24.03021 36.77116 40025 ft 464 kts 248°
2026-05-01 12:26 -24.07374 36.67659 40023 ft 463 kts 248°
2026-05-01 12:27 -24.11726 36.58215 40021 ft 463 kts 248°
2026-05-01 12:28 -24.16060 36.48778 40017 ft 462 kts 248°
2026-05-01 12:29 -24.19899 36.40403 40013 ft 462 kts 248°
2026-05-01 12:29 -24.24223 36.30957 40015 ft 462 kts 248°
2026-05-01 12:30 -24.28534 36.21523 40009 ft 461 kts 248°
2026-05-01 12:31 -24.31401 36.15238 40008 ft 461 kts 248°
2026-05-01 12:31 -24.34245 36.08993 40005 ft 460 kts 248°
2026-05-01 12:32 -24.37103 36.02710 40003 ft 460 kts 248°
2026-05-01 12:32 -24.41850 35.92255 39998 ft 460 kts 248°
2026-05-01 12:33 -24.44220 35.87030 39999 ft 459 kts 249°
2026-05-01 12:33 -24.47065 35.80748 39995 ft 459 kts 249°
2026-05-01 12:34 -24.49904 35.74471 39992 ft 458 kts 249°
2026-05-01 12:34 -24.52738 35.68201 39990 ft 458 kts 249°
2026-05-01 12:35 -24.55565 35.61931 39985 ft 458 kts 249°
2026-05-01 12:35 -24.58386 35.55668 39987 ft 457 kts 249°
2026-05-01 12:36 -24.61196 35.49420 39984 ft 456 kts 249°
2026-05-01 12:36 -24.63991 35.43194 39976 ft 456 kts 249°
2026-05-01 12:37 -24.66791 35.36948 39974 ft 455 kts 249°
2026-05-01 12:37 -24.69594 35.30688 39975 ft 455 kts 249°
2026-05-01 12:38 -24.72380 35.24449 39974 ft 454 kts 249°
2026-05-01 12:38 -24.75165 35.18209 39978 ft 454 kts 249°
2026-05-01 12:39 -24.77926 35.12021 39964 ft 453 kts 249°
2026-05-01 12:39 -24.80697 35.05801 39969 ft 453 kts 249°
2026-05-01 12:40 -24.83465 34.99578 39969 ft 452 kts 250°
2026-05-01 12:40 -24.86228 34.93361 39969 ft 452 kts 250°
2026-05-01 12:41 -24.88983 34.87153 39965 ft 451 kts 250°
2026-05-01 12:41 -24.91736 34.80931 39969 ft 451 kts 250°
2026-05-01 12:42 -24.94480 34.74722 39964 ft 450 kts 250°
2026-05-01 12:42 -24.97222 34.68512 39964 ft 450 kts 250°
2026-05-01 12:43 -24.99956 34.62309 39963 ft 450 kts 250°
2026-05-01 12:43 -25.02690 34.56098 39959 ft 450 kts 250°
2026-05-01 12:44 -25.05403 34.49930 39963 ft 449 kts 250°
2026-05-01 12:45 -25.10873 34.37540 39964 ft 449 kts 250°
2026-05-01 12:45 -25.13583 34.31337 39962 ft 448 kts 250°
2026-05-01 12:46 -25.16293 34.25131 39964 ft 448 kts 250°
2026-05-01 12:46 -25.18999 34.18929 39966 ft 448 kts 251°
2026-05-01 12:47 -25.21692 34.12739 39961 ft 447 kts 251°
2026-05-01 12:47 -25.24377 34.06569 39962 ft 447 kts 251°
2026-05-01 12:48 -25.25727 34.03467 39752 ft 447 kts 251°
2026-05-01 12:48 -25.27075 34.00367 39544 ft 447 kts 251°
2026-05-01 12:48 -25.28426 33.97261 39299 ft 448 kts 251°
2026-05-01 12:48 -25.29777 33.94144 39063 ft 448 kts 251°
2026-05-01 12:49 -25.31103 33.91078 38840 ft 448 kts 251°
2026-05-01 12:49 -25.32449 33.87962 38613 ft 449 kts 251°
2026-05-01 12:49 -25.33792 33.84852 38346 ft 449 kts 251°
2026-05-01 12:49 -25.35139 33.81732 38076 ft 450 kts 251°
2026-05-01 12:50 -25.36488 33.78606 37812 ft 451 kts 251°
2026-05-01 12:50 -25.37839 33.75471 37552 ft 452 kts 251°
2026-05-01 12:50 -25.39190 33.72337 37293 ft 453 kts 251°
2026-05-01 12:50 -25.40545 33.69191 37042 ft 454 kts 251°
2026-05-01 12:51 -25.41904 33.66036 36793 ft 454 kts 251°
2026-05-01 12:51 -25.43263 33.62876 36539 ft 455 kts 251°
2026-05-01 12:51 -25.45990 33.56534 36067 ft 457 kts 251°
2026-05-01 12:52 -25.47357 33.53349 35820 ft 458 kts 251°
2026-05-01 12:52 -25.50089 33.46973 35338 ft 460 kts 251°
2026-05-01 12:52 -25.51445 33.43804 35109 ft 461 kts 251°
2026-05-01 12:53 -25.54189 33.37385 34634 ft 462 kts 252°
2026-05-01 12:53 -25.55561 33.34171 34416 ft 463 kts 252°
2026-05-01 12:53 -25.56940 33.30940 34184 ft 464 kts 252°
2026-05-01 12:54 -25.58324 33.27697 33959 ft 465 kts 252°
2026-05-01 12:54 -25.61050 33.21320 33457 ft 451 kts 252°
2026-05-01 12:54 -25.62385 33.18190 33204 ft 448 kts 252°
2026-05-01 12:55 -25.65024 33.11970 32703 ft 444 kts 252°
2026-05-01 12:55 -25.66332 33.08884 32454 ft 442 kts 252°
2026-05-01 12:55 -25.67635 33.05807 32212 ft 439 kts 252°
2026-05-01 12:56 -25.68942 33.02754 31968 ft 437 kts 251°
2026-05-01 12:56 -25.70257 32.99723 31724 ft 435 kts 251°
2026-05-01 12:56 -25.71550 32.96740 31486 ft 433 kts 251°
2026-05-01 12:56 -25.72843 32.93735 31253 ft 431 kts 251°
2026-05-01 12:57 -25.74124 32.90736 31019 ft 429 kts 251°
2026-05-01 12:57 -25.76649 32.84776 30548 ft 424 kts 251°
2026-05-01 12:57 -25.77893 32.81827 30238 ft 423 kts 251°
2026-05-01 12:58 -25.79142 32.78858 29562 ft 423 kts 251°
2026-05-01 12:58 -25.80379 32.75916 28995 ft 419 kts 251°
2026-05-01 12:58 -25.81609 32.72997 28514 ft 410 kts 251°
2026-05-01 12:59 -25.83888 32.67524 27395 ft 384 kts 252°
2026-05-01 12:59 -25.85007 32.64787 26930 ft 384 kts 252°
2026-05-01 12:59 -25.87244 32.59470 25974 ft 382 kts 250°
2026-05-01 13:00 -25.89796 32.54326 25028 ft 379 kts 247°
2026-05-01 13:00 -25.91117 32.51800 24550 ft 378 kts 246°
2026-05-01 13:01 -25.93741 32.46785 23605 ft 373 kts 246°
2026-05-01 13:01 -25.95029 32.44296 23077 ft 371 kts 246°
2026-05-01 13:01 -25.97571 32.39341 22119 ft 368 kts 246°
2026-05-01 13:02 -25.98831 32.36875 21644 ft 366 kts 246°
2026-05-01 13:07 -26.30979 31.97325 11810 ft 295 kts 218°
2026-05-01 13:07 -26.32699 31.96108 11433 ft 291 kts 218°
2026-05-01 13:07 -26.34412 31.94897 11315 ft 290 kts 218°
2026-05-01 13:08 -26.36114 31.93693 11203 ft 289 kts 218°
2026-05-01 13:08 -26.37847 31.92540 11082 ft 293 kts 211°
2026-05-01 13:08 -26.39786 31.91797 10924 ft 297 kts 200°
2026-05-01 13:08 -26.41797 31.91289 10694 ft 296 kts 198°
2026-05-01 13:09 -26.43810 31.90815 10444 ft 294 kts 198°
2026-05-01 13:09 -26.45804 31.90344 10185 ft 292 kts 198°
2026-05-01 13:09 -26.47764 31.89878 9940 ft 290 kts 198°
2026-05-01 13:09 -26.49732 31.89410 9658 ft 287 kts 198°
2026-05-01 13:10 -26.51659 31.88953 9391 ft 279 kts 198°
2026-05-01 13:10 -26.53536 31.88511 9123 ft 273 kts 198°
2026-05-01 13:10 -26.55376 31.88074 8861 ft 268 kts 198°
2026-05-01 13:10 -26.57194 31.87634 8591 ft 267 kts 198°
2026-05-01 13:11 -26.59004 31.87191 8323 ft 266 kts 198°
2026-05-01 13:11 -26.60779 31.86674 8109 ft 259 kts 204°
2026-05-01 13:11 -26.62335 31.85786 7858 ft 245 kts 220°
2026-05-01 13:11 -26.63495 31.84452 7342 ft 238 kts 242°
2026-05-01 13:12 -26.64074 31.82753 6915 ft 230 kts 255°
2026-05-01 13:12 -26.64466 31.81040 6462 ft 225 kts 257°
2026-05-01 13:12 -26.64832 31.79352 5934 ft 223 kts 257°
2026-05-01 13:12 -26.65182 31.77697 5566 ft 213 kts 259°
2026-05-01 13:13 -26.65289 31.76093 5368 ft 206 kts 273°
2026-05-01 13:13 -26.64969 31.74545 5149 ft 205 kts 287°
2026-05-01 13:13 -26.64324 31.73144 4876 ft 209 kts 306°
2026-05-01 13:13 -26.63088 31.72280 4619 ft 215 kts 342°
2026-05-01 13:14 -26.61671 31.72009 4494 ft 200 kts 350°
2026-05-01 13:14 -26.60297 31.71908 4369 ft 196 kts 355°
2026-05-01 13:14 -26.58936 31.71872 4241 ft 195 kts 356°
2026-05-01 13:14 -26.57581 31.71858 4132 ft 194 kts 356°
2026-05-01 13:15 -26.56234 31.71848 4031 ft 193 kts 356°
2026-05-01 13:15 -26.54911 31.71838 3995 ft 184 kts 357°
2026-05-01 13:15 -26.53679 31.71829 4003 ft 172 kts 356°
2026-05-01 13:15 -26.52492 31.71817 3979 ft 172 kts 356°
2026-05-01 13:16 -26.51294 31.71808 3746 ft 172 kts 356°
2026-05-01 13:16 -26.50096 31.71798 3491 ft 171 kts 357°
2026-05-01 13:16 -26.48920 31.71790 3279 ft 166 kts 358°
2026-05-01 13:17 -26.45547 31.71747 2584 ft 160 kts 359°
2026-05-01 13:17 -26.44460 31.71698 2303 ft 158 kts
2026-05-01 13:18 -26.42298 31.71700 1901 ft 162 kts
2026-05-01 13:18 -26.41168 31.71700 1713 ft 161 kts
2026-05-01 13:18 -26.40053 31.71695 1593 ft 161 kts
2026-05-01 13:18 -26.38926 31.71708 1367 ft 162 kts
2026-05-01 13:19 -26.37799 31.71720 1220 ft 160 kts
2026-05-01 13:19 -26.36730 31.71716 1104 ft 141 kts 359°
2026-05-01 13:19 -26.35506 31.71708 1110 ft 65 kts 359°
2026-05-01 13:20 -26.35261 31.71706 1109 ft 44 kts 359°
2026-05-01 13:20 -26.34897 31.71704 1111 ft 33 kts 360°
2026-05-01 13:20 -26.34756 31.71731 1107 ft 15 kts 45°
2026-05-01 13:21 -26.34747 31.71949 1106 ft 12 kts 108°
2026-05-01 13:21 -26.34799 31.71980 1107 ft 8 kts 178°
2026-05-01 13:21 -26.34839 31.71980 1106 ft 10 kts 179°
2026-05-01 13:21 -26.34882 31.72007 1106 ft 7 kts 122°
2026-05-01 13:22 -26.34883 31.72058 1110 ft 5 kts 60°
2026-05-01 13:22 -26.34857 31.72068 1109 ft 4 kts
2026-05-01 13:22 -26.34816 31.72067 1112 ft 3 kts 359°
2026-05-01 13:22 -26.34808 31.72067 1110 ft 0 kts 358°